This demonstration page uses our WeatherBlox Daily Observations layout. Learn more.

36.17497, -115.13722

Hourly Observations for February 4, 2018

Temp ( °F °C ) Dew Point ( °F °C ) Humidity (%) Winds ( mph kmh ) Pressure ( in mb ) Visibility ( mi km ) Precip ( " mm )
12:53 am 00:53 Clear 61 16.1 28 -2.2 29 29 N 10 17 30.11 1020 10 16.0934 0 0
1:53 am 01:53 Clear 59 15 29 -1.7 32 32 N 9 15 30.12 1020 10 16.0934 0 0
2:53 am 02:53 Clear 60 15.6 30 -1.1 32 32 N 6 9 30.11 1020 10 16.0934 0 0
3:53 am 03:53 Clear 59 15 30 -1.1 33 33 N 9 15 30.12 1020 10 16.0934 0 0
4:53 am 04:53 Clear 58 14.4 30 -1.1 35 35 N 13 20 30.13 1020 10 16.0934 0 0
5:53 am 05:53 Clear 57 13.9 30 -1.1 36 36 NNW 14 22 30.15 1021 10 16.0934 0 0
6:53 am 06:53 Sunny 56 13.3 30 -1.1 37 37 NNW 6 9 30.17 1022 10 16.0934 0 0
7:53 am 07:53 Sunny 58 14.4 30 -1.1 35 35 NW 8 13 30.2 1023 10 16.0934 0 0
8:53 am 08:53 Sunny 63 17.2 30 -1.1 29 29 N 12 19 30.2 1023 10 16.0934 0 0
9:53 am 09:53 Sunny 65 18.3 31 -0.6 28 28 VRB 6 9 30.2 1023 10 16.0934 0 0
10:53 am 10:53 Sunny 69 20.6 28 -2.2 22 22 NNE 13 20 30.17 1022 10 16.0934 0 0
11:53 am 11:53 Sunny 70 21.1 26 -3.3 19 19 E 9 15 30.15 1021 10 16.0934 0 0
12:53 pm 12:53 Sunny 71 21.7 25 -3.9 18 18 E 6 9 30.11 1020 10 16.0934 0 0
1:53 pm 13:53 Sunny 73 22.8 23 -5 15 15 VRB 5 7 30.07 1018 10 16.0934 0 0
2:53 pm 14:53 Sunny 73 22.8 24 -4.4 16 16 SE 8 13 30.06 1018 10 16.0934 0 0
3:53 pm 15:53 Sunny 73 22.8 24 -4.4 16 16 SSE 5 7 30.06 1018 10 16.0934 0 0
4:53 pm 16:53 Sunny 71 21.7 25 -3.9 18 18 S 5 7 30.06 1018 10 16.0934 0 0
5:53 pm 17:53 Clear 68 20 26 -3.3 21 21 SSW 3 6 30.07 1018 10 16.0934 0 0
6:53 pm 18:53 Clear 63 17.2 28 -2.2 27 27 WNW 6 9 30.09 1019 10 16.0934 0 0
7:53 pm 19:53 Clear 61 16.1 29 -1.7 30 30 NW 7 11 30.09 1019 10 16.0934 0 0
8:53 pm 20:53 Clear 59 15 29 -1.7 32 32 NNW 6 9 30.09 1019 10 16.0934 0 0
9:53 pm 21:53 Clear 57 13.9 30 -1.1 36 36 WSW 5 7 30.09 1019 10 16.0934 0 0
10:53 pm 22:53 Clear 56 13.3 31 -0.6 39 39 NW 6 9 30.09 1019 10 16.0934 0 0
11:53 pm 23:53 Clear 61 16.1 26 -3.3 26 26 N 8 13 30.06 1018 10 16.0934 0 0

Powered by AerisWeather